Regional Weather Roundup
Issued by NWS Sterling, VA

Home | Current Version | Previous Version | Text Only | Print | Product List | Glossary Off
Versions: 1 2 3 4 5 6 7 8 9 10 11 12 13 14 15 16 17 18 19 20 21 22 23 24 25 26 27 28 29 30 31 32 33 34 35 36 37 38 39 40 41 42 43 44 45 46 47 48 49 50

000
ASUS41 KLWX 201810
RWRLWX

REGIONAL WEATHER ROUNDUP
NATIONAL WEATHER SERVICE BALTIMORE MD/WASHINGTON DC
200 PM EDT MON APR 20 2015

Note: "FAIR" indicates few or no clouds below 12,000 feet
with no significant weather and/or obstructions to visibility.
 TC=TEMPERATURE CELSIUS

 * =Non NWS site. Station does not report precipitation (e.g. rain,
    snow, etc.), thunder, or fog.

DCZ001-MDZ009-015-VAZ040>042-051-053>054-201900-
WASHINGTON METRO

CITY           SKY/WX    TMP DP  RH WIND       PRES   REMARKS
WASHINGTON NAT CLOUDY    78  59  51 S16G24    29.60F
DULLES         PTSUNNY   75  58  55 S9        29.59F
ANDREWS AFB    PTSUNNY   76  60  57 SW14      29.60F
FT BELVOIR     PTSUNNY   77  59  53 SE7       29.59F
QUANTICO       PTSUNNY   73  62  68 S10       29.60F
COLLEGE PARK*  MOSUNNY   77  59  53 S7        29.60F
LEESBURG*      PTSUNNY   75  59  57 S14G23    29.60F
MANASSAS*      MOSUNNY   77  59  53 S13G20    29.59F
GAITHERSBURG*  PTSUNNY   75  57  53 SW9       29.64F

$$

MDZ006>007-011-014-201900-
BALTIMORE METRO

CITY           SKY/WX    TMP DP  RH WIND       PRES   REMARKS
BWI AIRPORT    PTSUNNY   76  57  51 S10       29.60F
MD SCIENCE CTR   N/A     75  61  61 MISG      29.62F
MARTIN STATE   MOSUNNY   73  66  78 SE7       29.63F
ANNAPOLIS      SUNNY     66  60  81 SE14      29.61F
FORT MEADE*    SUNNY     77  55  47 S12G18    29.62F

$$

MDZ012-015-019>023-201900-
MARYLAND EASTERN SHORE

CITY           SKY/WX    TMP DP  RH WIND       PRES   REMARKS
OCEAN CITY     MOSUNNY   61  57  87 S9        29.68S
SALISBURY      CLOUDY    73  64  73 S9        29.66F
BAY BRIDGE AP*   N/A    N/A N/A N/A SE15      29.62F
CAMBRIDGE*     MOSUNNY   77  63  61 S7        29.64S

$$

MDZ017>025-201900-
SOUTHERN MARYLAND

CITY           SKY/WX    TMP DP  RH WIND       PRES   REMARKS
PATUXENT RIVER PTSUNNY   76  64  66 SW9G17    29.62F
ST INIGOES     MOSUNNY   75  63  66 S13       29.63F
LEONARDTOWN*   PTSUNNY   75  59  57 S12G17    29.64F

$$

MDZ003>005-201900-
NORTH CENTRAL MARYLAND

CITY           SKY/WX    TMP DP  RH WIND       PRES   REMARKS
FREDERICK*     MOSUNNY   79  55  44 S9        29.62F
HAGERSTOWN APT PTSUNNY   69  56  62 SE12      29.58F
WESTMINSTER*   PTSUNNY   77  61  57 SE8       29.61S

$$

MDZ501>502-201900-
WESTERN MARYLAND

CITY           SKY/WX    TMP DP  RH WIND       PRES   REMARKS
OAKLAND*       CLOUDY    70  52  52 SW13G23   29.58F
CUMBERLAND*    CLOUDY    64  54  68 NW5       29.60F

$$

VAZ025>031-201900-
SHENANDOAH VALLEY

CITY           SKY/WX    TMP DP  RH WIND       PRES   REMARKS
WINCHESTER*    PTSUNNY   73  52  46 S9G16     29.58F
FRONT ROYAL*   NOT AVBL
LURAY*         NOT AVBL
NEW MARKET*    NOT AVBL
STAUNTON*      CLOUDY    74  58  57 S9        29.62F
WAYNESBORO*    NOT AVBL

$$

WVZ021-048>050-054>055-201900-
EASTERN WEST VIRGINIA PANHANDLE

CITY           SKY/WX    TMP DP  RH WIND       PRES   REMARKS
MARTINSBURG    PTSUNNY   72  58  61 S9        29.57
PETERSBURG*    NOT AVBL

$$

VAZ036>039-050-201900-
CENTRAL FOOTHILLS

CITY           SKY/WX    TMP DP  RH WIND       PRES   REMARKS
CHARLOTTESVILL CLOUDY    77  59  53 S20       29.60F
CULPEPER*      CLOUDY    79  61  53 SW9       29.60F
ORANGE*        CLOUDY    77  59  53 S13G21    29.62F
GORDONSVILLE*  MOCLDY    75  59  57 SW9G16    29.60F
WARRENTON*     FAIR      78  61  57 S8        29.59F

$$

VAZ055>057-201900-
NORTH AND CENTRAL PIEDMONT

CITY           SKY/WX    TMP DP  RH WIND       PRES   REMARKS
FREDERICKSBRG* PTSUNNY   80  60  50 S17G23    29.60F
STAFFORD*      PTSUNNY   77  55  46 S8G16     29.64F

$$

NCZ024-NYZ072-PAZ021-071-VAZ022-071-201900-
OTHER REGIONAL OBSERVATIONS

CITY           SKY/WX    TMP DP  RH WIND       PRES   REMARKS
NEW YORK CITY  CLOUDY    56  55  97 VRB7      29.72F FOG
PHILADELPHIA   PTSUNNY   68  61  78 W8        29.64F
PITTSBURGH     LGT RAIN  71  50  47 S23G32    29.46F
ROANOKE        PTSUNNY   73  56  54 SW8       29.64F
RICHMOND       CLOUDY    78  62  57 SW17G24   29.64F
RALEIGH        PTSUNNY   77  62  59 SW18G24   29.71F

$$

ANZ530>537-201900-
MARINE OBSERVATIONS

STATION/POSITION TIME  TEMP    WIND        PRES
                       AIR SEA DIR/SP/G
                 (UTC) (F)     (DEG/KT/KT) (MB)
THOMAS PT LIGHT  1800   65 56  150/ 14/ 15 1003.1F
BALT KEY BRIDGE  1700   66      90/ 10/ 10 1002.9F
COVE POINT       1700   64     170/  8/  9 1003.7F
LEWISETTA        1700   73 63              1003.9F
SOLOMONS ISLAND  1700      56                N/A
PINEY POINT      1700          230/  8/  9   N/A

$$




USA.gov is the U.S. government's official web portal to all federal, state and local government web resources and services.